TimeEST,TemperatureF,Dew PointF,Humidity,Sea Level PressureIn,VisibilityMPH,Wind Direction,Wind SpeedMPH,Gust SpeedMPH,PrecipitationIn,Events,Conditions,WindDirDegrees,DateUTC
12:51 AM,25.0,21.0,85,30.01,0.8,ENE,10.4,-,0.02,Snow,Light Snow,70,2014-02-05 05:51:00
1:51 AM,25.0,22.1,89,29.94,1.0,East,10.4,-,0.02,Snow,Light Snow,80,2014-02-05 06:51:00
2:51 AM,26.1,23.0,88,29.91,1.0,East,8.1,-,0.03,Snow,Light Snow,80,2014-02-05 07:51:00
3:51 AM,27.0,23.0,85,29.86,1.0,ENE,8.1,-,0.02,Snow,Light Snow,60,2014-02-05 08:51:00
4:51 AM,27.0,24.1,89,29.79,1.0,East,10.4,-,0.02,Rain-Snow,Freezing Rain,80,2014-02-05 09:51:00
5:48 AM,26.6,24.8,93,29.69,3.0,East,13.8,-,0.00,Rain,Light Freezing Rain,80,2014-02-05 10:48:00
5:51 AM,26.1,24.1,92,29.74,3.0,East,11.5,-,0.00,Rain,Light Freezing Rain,80,2014-02-05 10:51:00
6:24 AM,26.6,26.6,100,29.67,4.0,East,15.0,-,0.00,Rain,Light Freezing Rain,80,2014-02-05 11:24:00
6:41 AM,26.6,26.6,100,29.64,4.0,East,15.0,-,0.00,Rain,Light Ice Pellets,80,2014-02-05 11:41:00
6:51 AM,27.0,26.1,96,29.68,4.0,East,15.0,-,0.00,Rain,Light Freezing Rain,80,2014-02-05 11:51:00
7:41 AM,26.6,26.6,100,29.66,2.0,ENE,9.2,-,0.01,Rain,Light Freezing Rain,70,2014-02-05 12:41:00
7:51 AM,26.1,26.1,100,29.68,2.0,ENE,4.6,-,0.01,Rain,Light Freezing Rain,60,2014-02-05 12:51:00
8:14 AM,26.6,26.6,100,29.65,2.0,ENE,9.2,-,0.01,Rain-Snow,Light Freezing Rain,60,2014-02-05 13:14:00
8:51 AM,27.0,27.0,100,29.70,2.0,NE,4.6,-,0.01,Rain-Snow,Light Freezing Rain,40,2014-02-05 13:51:00
9:31 AM,26.6,26.6,100,29.67,2.0,Variable,6.9,-,0.00,Snow,Light Snow,0,2014-02-05 14:31:00
9:51 AM,26.1,24.1,92,29.71,2.0,North,9.2,-,0.01,Snow,Light Snow,360,2014-02-05 14:51:00
10:51 AM,26.1,24.1,92,29.75,4.0,NNW,9.2,-,0.03,Snow,Light Snow,340,2014-02-05 15:51:00
11:51 AM,26.1,22.1,85,29.79,4.0,NNW,4.6,-,N/A,Snow,Light Snow,340,2014-02-05 16:51:00
12:40 PM,26.6,23.0,86,29.76,1.0,NW,10.4,-,0.02,Snow,Light Snow,320,2014-02-05 17:40:00
12:51 PM,26.1,22.1,85,29.81,1.0,NNW,12.7,-,0.03,Snow,Light Snow,340,2014-02-05 17:51:00
1:37 PM,24.8,19.4,80,29.80,2.0,North,13.8,-,0.01,Snow,Light Snow,360,2014-02-05 18:37:00
1:51 PM,24.1,19.9,84,29.87,2.0,NNW,16.1,-,0.01,Snow,Light Snow,340,2014-02-05 18:51:00
1:56 PM,24.8,19.4,80,29.82,1.0,NNW,16.1,-,0.00,Snow,Light Snow,340,2014-02-05 18:56:00
2:51 PM,24.1,18.0,77,29.93,2.0,NW,13.8,-,0.02,Snow,Light Snow,320,2014-02-05 19:51:00
3:51 PM,26.2,22.8,87,30.01,2.0,North,13.8,-,0.01,Snow,Light Snow,350,2014-02-05 20:51:00
4:51 PM,24.8,21.9,89,30.06,2.0,North,13.8,-,0.01,Snow,Light Snow,350,2014-02-05 21:51:00
5:51 PM,23.4,20.7,89,30.12,2.0,North,11.5,-,0.01,Snow,Light Snow,350,2014-02-05 22:51:00
6:06 PM,23.0,21.2,93,30.08,3.0,North,11.5,-,0.01,Snow,Light Snow,350,2014-02-05 23:06:00
6:51 PM,23.0,20.7,91,30.17,3.0,NNW,11.5,-,0.01,Snow,Light Snow,340,2014-02-05 23:51:00
7:51 PM,23.2,20.7,90,30.20,3.0,NNW,11.5,-,0.00,Snow,Light Snow,340,2014-02-06 00:51:00
8:51 PM,21.9,19.0,89,30.25,3.0,NNW,11.5,-,0.00,Snow,Light Snow,340,2014-02-06 01:51:00
9:51 PM,21.0,18.0,88,30.28,2.5,NNW,11.5,-,0.00,Snow,Light Snow,340,2014-02-06 02:51:00
10:28 PM,21.2,17.6,86,30.24,3.0,NNW,11.5,-,0.00,Snow,Light Snow,340,2014-02-06 03:28:00
10:51 PM,19.8,16.7,88,30.30,4.0,North,9.2,-,0.01,Snow,Light Snow,350,2014-02-06 03:51:00
11:51 PM,19.8,16.7,88,30.32,8.0,North,9.2,-,N/A,Snow,Light Snow,350,2014-02-06 04:51:00